Weather History for EGXG - January, 2013

Change the Weather History Date:

Thursday, January 3, 2013

  Actual Average Record
Temperature  
Mean Temperature 52 °F -  
Max Temperature 54 °F - - ()
Min Temperature 50 °F - - ()
Degree Days  
Heating Degree Days 12    
Growing Degree Days 2 (Base 50)    
Moisture  
Dew Point 48 °F    
Average Humidity 86    
Maximum Humidity 97    
Minimum Humidity 73    
Precipitation  
Precipitation 0.00 in - - ()
Sea Level Pressure  
Sea Level Pressure 30.38 in    
Wind  
Wind Speed 11 mph ()    
Max Wind Speed 21 mph    
Max Gust Speed -    
Visibility 7.2 miles    
Events Rain    
T = Trace of Precipitation, MM = Missing Value Source: Averaged Metar Reports

Daily Weather History Graph

Daily Weather History Graph

Search for Another Location

Airport or City:

Astronomy

Jan. 03, 2013 Rise Set
Actual Time 8:22 AM GMT 3:56 PM GMT
Civil Twilight 7:39 AM GMT 4:39 PM GMT
Nautical Twilight 6:53 AM GMT 5:25 PM GMT
Astronomical Twilight 6:10 AM GMT 6:08 PM GMT
Moon 11:19 PM GMT (1/3) 10:28 AM GMT (1/3)
Length of Visible Light 9h 00m
Length of Day
7h 34m
Waning Gibbous, 68% of the Moon is Illuminated
Jan 3
Waning Gibbous
Jan 5
Last Quarter
Jan 11
New
Jan 18
First Quarter
Jan 27
Full

Hourly Weather History & Observations

Time (GMT) Temp. Dew Point Humidity Pressure Visibility Wind Dir Wind Speed Gust Speed Precip Events Conditions
12:50 AM 53.6 °F 50.0 °F 88% 30.21 in 4.3 mi WSW 16.1 mph - N/A Rain Light Rain Showers
1:50 AM 51.8 °F 50.0 °F 94% 30.21 in - WSW 10.4 mph - N/A   Light Drizzle
2:50 AM 51 °F 50 °F 97% 30.25 in 2 mi SW 10.4 mph - - Rain Light Drizzle
2:50 AM 51.8 °F 50.0 °F 94% 30.24 in 1.9 mi SW 10.4 mph - N/A   Light Drizzle
3:50 AM 51.8 °F 50.0 °F 94% 30.24 in 6.2 mi WSW 10.4 mph - N/A   Overcast
4:50 AM 51.8 °F 50.0 °F 94% 30.27 in 4.3 mi West 9.2 mph - N/A   Light Drizzle
5:50 AM 52 °F 50 °F 89% 30.28 in 19 mi West 15.0 mph - - Rain Drizzle
5:50 AM 51.8 °F 50.0 °F 94% 30.27 in 6.2 mi West 15.0 mph - N/A   Mostly Cloudy
6:50 AM 51.8 °F 48.2 °F 88% 30.27 in 6.2 mi WSW 20.7 mph - N/A   Mostly Cloudy
7:50 AM 53.6 °F 48.2 °F 82% 30.30 in 6.2 mi WSW 13.8 mph - N/A   Mostly Cloudy
8:50 AM 53 °F 48 °F 79% 30.35 in 25 mi WNW 8.1 mph - -   Mostly Cloudy
8:50 AM 53.6 °F 48.2 °F 82% 30.33 in 6.2 mi WNW 8.1 mph - N/A   Mostly Cloudy
9:50 AM 53.6 °F 46.4 °F 77% 30.36 in 6.2 mi West 9.2 mph - N/A   Mostly Cloudy
10:50 AM 53.6 °F 46.4 °F 77% 30.36 in 6.2 mi West 17.3 mph - N/A   Overcast
11:50 AM 53 °F 47 °F 73% 30.40 in 22 mi West 15.0 mph - -   Mostly Cloudy
11:50 AM 53.6 °F 46.4 °F 77% 30.39 in 6.2 mi West 15.0 mph - N/A   Mostly Cloudy
12:50 PM 53.6 °F 46.4 °F 77% 30.39 in 6.2 mi WSW 8.1 mph - N/A   Mostly Cloudy
1:50 PM 53.6 °F 46.4 °F 77% 30.39 in 6.2 mi WNW 12.7 mph - N/A   Mostly Cloudy
2:50 PM 53 °F 49 °F 82% 30.43 in 19 mi West 9.2 mph - -   Scattered Clouds
2:50 PM 53.6 °F 50.0 °F 88% 30.42 in 6.2 mi West 9.2 mph - N/A   Mostly Cloudy
3:50 PM 51.8 °F 50.0 °F 94% 30.45 in 6.2 mi East 1.2 mph - N/A Rain Light Rain Showers
4:50 PM 51.8 °F 48.2 °F 88% 30.45 in 6.2 mi SW 8.1 mph - N/A   Mostly Cloudy
5:50 PM 52 °F 49 °F 84% 30.48 in 7 mi WSW 11.5 mph - -   Overcast
5:50 PM 51.8 °F 48.2 °F 88% 30.48 in 6.2 mi WSW 11.5 mph - N/A   Overcast
6:50 PM 51.8 °F 48.2 °F 88% 30.45 in 6.2 mi WSW 16.1 mph - N/A   Mostly Cloudy
7:50 PM 51.8 °F 48.2 °F 88% 30.48 in 6.2 mi WNW 6.9 mph - N/A   Scattered Clouds
8:50 PM 52 °F 47 °F 79% 30.49 in 15 mi West 13.8 mph - -   Partly Cloudy
8:50 PM 51.8 °F 48.2 °F 88% 30.48 in 6.2 mi West 13.8 mph - N/A   Scattered Clouds
9:50 PM 51.8 °F 48.2 °F 88% 30.48 in 6.2 mi West 18.4 mph - N/A   Unknown
10:50 PM 51.8 °F 46.4 °F 82% 30.51 in 6.2 mi West 12.7 mph - N/A   Mostly Cloudy
11:50 PM 51 °F 46 °F 79% 30.51 in 13 mi West 6.9 mph - -  
11:50 PM 50.0 °F 46.4 °F 87% 30.51 in 6.2 mi West 6.9 mph - N/A   Unknown